Volver al catálogo

STARLINK-34621

ActivoComunicacionesVLEO
NORAD 64774·PAYLOAD·🇺🇸 United States

Lanzado Jul 8, 2025 desde Cape Canaveral Space Force Station

Loading…

Próximos Pases (próximas 24 horas)

TLE

ActualizadoSource: CelesTrak SupGP

Época: Sep 14, 2026, 20:47 UTC

1 64774C 25147V   26257.86645833 -.00014012  00000+0 -41410-3 0  2571
2 64774  53.1593  83.7795 0001255  77.6844 125.5453 15.34388501    18

Sigue STARLINK-34621 en tiempo real con AllMySat

Download on the App Store